^^
Paulen-Weather Station Historical Data
Daily Summary for July 31, 2022 Units:  Metric    English   Both
Daily Weekly Monthly Yearly Custom
  High: Low: Average:
Temperature: 17 °C 15 °C 15.7 °C
Dew Point: 15 °C 14 °C 14.6 °C
Humidity: 94% 87% 92%
Wind Speed: 9km/h 4km/h 6km/h
Wind Gust: 8km/h - -
Wind- - NNW
Pressure: 1015.65 hPa 1014.43 hPa -
Precipitation: 0 mm    
Historical Graphs
 
 
Tabular Data for July 31, 2022
Time Temperature Dew Point Pressure Wind Wind Speed Wind Gust Humidity Rainfall Rate (Hourly) solar
00:04 17 °C 15 °C 1015.65 hPa NW 6 km/h 5 km/h 87% 0 mm 0 W/m2
00:09 17 °C 15 °C 1015.61 hPa NW 6 km/h 6 km/h 88% 0 mm 0 W/m2
00:14 17 °C 15 °C 1015.61 hPa NW 6 km/h 6 km/h 89% 0 mm 0 W/m2
00:19 17 °C 15 °C 1015.58 hPa NW 6 km/h 4 km/h 89% 0 mm 0 W/m2
00:24 16 °C 15 °C 1015.54 hPa NW 6 km/h 4 km/h 89% 0 mm 0 W/m2
00:29 16 °C 14 °C 1015.54 hPa NW 5 km/h 4 km/h 89% 0 mm 0 W/m2
00:34 16 °C 14 °C 1015.48 hPa NW 4 km/h 3 km/h 89% 0 mm 0 W/m2
00:39 16 °C 15 °C 1015.44 hPa NW 4 km/h 4 km/h 89% 0 mm 0 W/m2
00:44 16 °C 15 °C 1015.44 hPa NW 6 km/h 4 km/h 90% 0 mm 0 W/m2
00:49 16 °C 14 °C 1015.41 hPa NW 6 km/h 5 km/h 90% 0 mm 0 W/m2
00:54 16 °C 14 °C 1015.41 hPa NW 6 km/h 5 km/h 90% 0 mm 0 W/m2
00:59 16 °C 15 °C 1015.44 hPa NW 6 km/h 5 km/h 90% 0 mm 0 W/m2
01:04 16 °C 15 °C 1015.37 hPa NW 6 km/h 4 km/h 91% 0 mm 0 W/m2
01:09 16 °C 15 °C 1015.31 hPa NW 6 km/h 5 km/h 91% 0 mm 0 W/m2
01:14 16 °C 14 °C 1015.24 hPa NW 6 km/h 5 km/h 91% 0 mm 0 W/m2
01:19 16 °C 14 °C 1015.17 hPa NW 6 km/h 6 km/h 91% 0 mm 0 W/m2
01:24 16 °C 15 °C 1015.14 hPa NNW 6 km/h 5 km/h 92% 0 mm 0 W/m2
01:29 16 °C 14 °C 1015.1 hPa NNW 6 km/h 6 km/h 92% 0 mm 0 W/m2
01:34 16 °C 15 °C 1015.07 hPa NNW 6 km/h 7 km/h 93% 0 mm 0 W/m2
01:39 16 °C 15 °C 1015.04 hPa NNW 7 km/h 7 km/h 93% 0 mm 0 W/m2
01:44 16 °C 15 °C 1014.97 hPa NNW 6 km/h 6 km/h 93% 0 mm 0 W/m2
01:49 16 °C 15 °C 1014.97 hPa NNW 6 km/h 6 km/h 93% 0 mm 0 W/m2
01:54 16 °C 14 °C 1014.93 hPa NNW 6 km/h 5 km/h 93% 0 mm 0 W/m2
01:59 16 °C 15 °C 1014.93 hPa NNW 7 km/h 8 km/h 93% 0 mm 0 W/m2
02:04 16 °C 15 °C 1014.93 hPa NNW 9 km/h 8 km/h 94% 0 mm 0 W/m2
02:09 16 °C 15 °C 1014.93 hPa NNW 7 km/h 6 km/h 94% 0 mm 0 W/m2
02:14 16 °C 15 °C 1014.83 hPa NNW 6 km/h 5 km/h 94% 0 mm 0 W/m2
02:19 16 °C 15 °C 1014.87 hPa NNW 6 km/h 6 km/h 94% 0 mm 0 W/m2
02:24 15 °C 15 °C 1014.83 hPa NNW 8 km/h 7 km/h 94% 0 mm 0 W/m2
02:29 15 °C 15 °C 1014.8 hPa NNW 7 km/h 6 km/h 94% 0 mm 0 W/m2
02:34 15 °C 15 °C 1014.8 hPa NNW 6 km/h 6 km/h 94% 0 mm 0 W/m2
02:39 15 °C 15 °C 1014.73 hPa NNW 6 km/h 4 km/h 94% 0 mm 0 W/m2
02:44 15 °C 15 °C 1014.8 hPa NNW 5 km/h 4 km/h 94% 0 mm 0 W/m2
02:49 15 °C 15 °C 1014.83 hPa NNW 6 km/h 6 km/h 94% 0 mm 0 W/m2
02:54 15 °C 15 °C 1014.83 hPa NNW 6 km/h 5 km/h 94% 0 mm 0 W/m2
02:59 15 °C 15 °C 1014.8 hPa NNW 6 km/h 4 km/h 94% 0 mm 0 W/m2
03:04 15 °C 14 °C 1014.83 hPa NNW 6 km/h 5 km/h 93% 0 mm 0 W/m2
03:09 15 °C 14 °C 1014.8 hPa NNW 6 km/h 5 km/h 93% 0 mm 0 W/m2
03:14 15 °C 14 °C 1014.77 hPa NNW 6 km/h 6 km/h 93% 0 mm 0 W/m2
03:19 15 °C 14 °C 1014.73 hPa NNW 6 km/h 5 km/h 93% 0 mm 0 W/m2
03:24 15 °C 14 °C 1014.73 hPa NNW 5 km/h 5 km/h 93% 0 mm 0 W/m2
03:29 15 °C 14 °C 1014.73 hPa N 5 km/h 3 km/h 93% 0 mm 0 W/m2
03:34 15 °C 14 °C 1014.73 hPa NNW 5 km/h 4 km/h 93% 0 mm 0 W/m2
03:39 15 °C 14 °C 1014.7 hPa NNW 5 km/h 4 km/h 93% 0 mm 0 W/m2
03:44 15 °C 14 °C 1014.66 hPa NNW 6 km/h 4 km/h 93% 0 mm 0 W/m2
03:49 15 °C 14 °C 1014.66 hPa NNW 6 km/h 4 km/h 93% 0 mm 0 W/m2
03:54 15 °C 14 °C 1014.63 hPa NNW 6 km/h 5 km/h 93% 0 mm 0 W/m2
03:59 15 °C 14 °C 1014.53 hPa NNW 6 km/h 6 km/h 93% 0 mm 0 W/m2
04:04 15 °C 14 °C 1014.43 hPa NNW 6 km/h 5 km/h 93% 0 mm 0 W/m2
Compliments of Weather Underground - 2 mb